CAPE
0 0 0 0 0 0 49 80 43 65 45 70 82 48 46 51 52 62 44 30 76 91 58 43 37 16 3 0 0 0 0 0
0 0 3 3 7 16 11 12 97 110 41 42 44 50 63 62 84 84 82 87 125 35 97 62 109 98 52 1 13 32 6 0
0 3 4 6 11 16 30 41 43 50 59 62 65 63 49 49 55 63 101 96 71 80 41 38 33 41 35 91 104 85 38 51
0 0 0 0 8 12 15 21 23 27 38 47 47 41 28 30 28 31 27 19 4 0 0 0 0 2 14 24 63 91 88 55
0 0 0 0 0 0 0 0 0 0 0 0 0 0 0 0 0 0 0 0 0 0 0 0 0 0 6 29 25 74 87 71
0 0 0 0 0 0 0 0 0 0 0 0 0 0 0 0 0 0 0 0 0 0 0 0 0 0 0 0 11 52 76 50
0 0 0 0 0 0 0 0 0 0 0 0 0 0 0 0 0 0 0 0 0 0 0 0 0 0 0 0 1 18 16 42
0 0 0 0 0 0 0 0 0 0 0 0 0 0 0 0 0 0 0 0 0 1 2 1 2 2 3 10 10 10 22 18
0 0 0 0 0 0 0 0 0 0 0 0 0 0 2 3 2 2 4 3 3 0 7 7 3 2 6 0 1 13 17 19
0 0 0 0 0 0 0 0 0 0 0 2 3 3 4 3 4 7 13 7 6 14 8 9 14 15 9 10 9 2 0 1
0 0 0 0 0 0 0 0 0 0 0 0 2 3 1 3 3 7 9 12 6 10 11 10 15 13 21 19 16 18 7 1
0 0 0 0 0 0 0 0 0 0 1 6 5 5 5 3 1 6 22 19 31 33 18 28 23 17 3 10 6 14 21 11
0 0 0 0 0 0 0 0 0 2 5 9 6 3 4 1 12 23 21 2 5 0 0 0 0 0 0 0 0 1 6 13
0 0 0 0 0 0 0 0 0 2 3 7 8 13 5 10 16 24 20 1 2 14 24 31 7 17 21 13 0 0 1 14
0 0 0 0 0 0 0 0 3 3 3 4 7 3 6 14 26 2 30 17 18 14 11 15 17 6 8 8 9 3 0 5
0 0 0 0 0 0 0 1 3 2 5 2 1 3 5 10 12 6 19 7 5 2 7 6 14 7 0 0 6 11 1 0
0 0 0 0 0 0 0 2 1 0 0 0 1 3 4 7 6 9 9 2 3 3 1 4 5 0 1 0 2 0 2 2
0 0 0 0 0 0 0 3 0 3 1 0 0 2 1 6 4 2 0 1 10 15 20 7 3 0 1 1 0 1 0 1
0 0 0 0 0 0 0 2 2 2 1 0 0 1 0 6 1 3 3 7 11 12 10 7 3 0 1 1 1 0 1 0
CIN
0 0 0 0 0 0 -3 -6 -40 -37 -20 -8 -2 -1 -1 -1 -2 -1 -18 -30 -5 -10 -19 -31 -33 -32 -5 -3 0 0 0 0
0 0 -1 -3 -1 -2 -1 0 -1 -2 -1 -2 -2 -2 -2 -2 -2 -1 -2 -1 -1 -2 -1 -1 -1 -1 -1 -32 -30 -4 -1 0
0 -1 0 -2 -1 -1 -1 -2 -1 -1 -2 -1 -2 -1 -2 -3 -2 -1 -2 -1 -1 -1 -2 -2 -2 -2 -5 -1 -2 -1 -2 -2
0 0 0 0 -1 -2 -3 -2 -1 -1 -2 -1 -1 -2 -2 -3 -2 -1 -2 -1 -11 0 0 0 0 -2 -2 -4 -3 -4 -2 -3
0 0 0 0 0 0 0 0 0 0 0 0 0 0 0 0 0 0 0 0 0 0 0 0 0 0 -1 -2 -1 -2 -6 -4
0 0 0 0 0 0 0 0 0 0 0 0 0 0 0 0 0 0 0 0 0 0 0 0 0 0 0 0 -1 -1 -5 -5
0 0 0 0 0 0 0 0 0 0 0 0 0 0 0 0 0 0 0 0 0 0 0 -1 0 0 0 0 -1 -2 -3 -3
0 0 0 0 0 0 0 0 0 0 0 0 0 0 0 0 0 0 0 0 -1 -2 -2 -2 -1 -2 -3 -2 -2 -2 -3 -4
0 0 0 0 0 0 0 0 0 0 0 0 0 0 -2 -1 -1 -1 -1 -1 -1 -1 -1 -1 -3 -5 -3 -1 0 -1 -2 -3
0 0 0 0 0 0 0 0 0 0 0 -2 -1 -1 0 -1 0 0 0 0 0 0 -1 -1 0 -1 -1 -2 -1 0 0 -4
0 0 0 0 0 0 0 0 0 0 0 -1 -1 0 0 0 -1 -1 -1 -1 -1 0 0 0 0 0 0 -1 0 0 0 0
0 0 0 0 0 0 0 0 0 0 0 -1 -1 0 0 -1 -1 -1 -1 -1 0 0 0 0 0 0 0 0 0 -1 -1 0
0 0 0 0 0 0 0 0 0 0 0 -1 -1 0 -1 -2 -1 -1 0 -1 0 0 0 0 0 0 0 0 0 0 0 -1
0 0 0 0 0 0 0 0 -1 0 0 0 -1 0 -1 -1 -1 0 -1 -2 0 0 0 0 0 0 0 0 0 0 0 0
0 0 0 0 0 0 0 0 -1 0 0 -1 -1 -2 -1 -1 -1 0 0 0 0 0 0 0 0 0 0 0 0 0 0 0
0 0 0 0 0 0 0 -2 0 0 0 -1 -1 -1 -1 -1 0 0 0 0 0 0 -2 0 0 0 0 0 0 0 0 0
0 0 0 0 0 0 0 0 0 0 -1 -1 -2 -1 -1 -1 -1 0 0 -1 0 0 0 0 -3 -2 0 0 0 -1 0 -1
0 0 0 0 0 0 0 0 -1 -1 -1 0 0 -1 -2 -1 0 0 -1 0 0 0 0 0 0 0 0 -1 0 0 0 0
0 0 0 0 0 0 0 0 0 -1 0 0 0 -2 -1 -1 0 0 0 -1 -1 -1 -1 0 0 0 -2 0 0 0 -1 -1
Wind_Speed
22 22 23 23 24 22 19 16 14 11 16 16 19 20 20 20 20 20 24 24 23 24 25 26 26 29 28 29 27 28 33 29
21 21 22 22 22 20 20 18 16 17 19 21 23 25 25 24 23 23 24 28 28 26 25 26 25 27 27 26 27 30 26 29
23 22 21 19 17 18 15 15 16 14 13 12 15 25 27 28 29 29 28 29 26 27 28 29 30 30 29 28 28 28 30 27
24 23 23 22 20 19 18 18 18 18 18 18 19 20 21 23 24 24 25 26 27 29 31 32 33 32 34 33 32 30 31 28
23 24 24 23 21 22 22 24 22 20 21 19 19 21 24 26 30 31 31 31 32 31 31 32 33 33 35 35 35 34 33 35
26 27 25 24 24 26 25 24 22 23 24 23 24 25 28 30 29 30 30 30 29 29 30 32 33 33 35 37 37 36 34 35
26 25 25 26 27 28 27 27 28 30 29 28 27 29 32 32 32 33 32 31 30 31 31 32 34 35 35 35 35 37 38 38
28 28 29 27 28 30 31 33 35 36 33 30 28 29 31 32 32 33 35 33 33 33 33 33 34 36 37 36 36 38 37 37
29 30 28 28 30 32 35 38 39 36 32 29 29 30 31 34 34 34 34 33 33 35 34 34 34 35 35 35 36 37 37 39
30 31 30 29 29 31 36 40 40 35 32 31 31 32 32 34 35 35 35 34 35 36 36 36 35 35 34 33 34 36 35 35
31 30 30 26 25 26 31 38 39 36 34 31 31 32 33 34 36 36 35 35 34 34 34 33 33 33 32 33 33 33 36 37
35 32 31 30 28 29 32 35 37 35 32 29 31 33 36 35 35 35 35 34 33 32 30 30 29 28 30 31 32 33 33 33
34 32 30 29 30 33 36 35 34 34 30 30 31 33 36 35 35 34 34 36 30 30 29 28 28 28 28 28 30 32 33 35
34 31 29 30 32 35 39 35 35 32 30 32 33 34 37 36 35 34 32 31 28 27 26 26 26 27 28 28 30 33 35 34
32 28 27 28 31 36 37 34 36 32 31 33 34 36 37 36 35 32 28 25 25 26 23 22 24 26 27 29 29 30 34 33
31 28 28 29 30 35 36 35 35 33 32 34 35 36 36 34 34 30 23 22 23 24 19 16 20 25 29 30 30 29 29 30
30 28 29 31 32 35 34 35 34 32 33 34 34 35 36 34 31 27 21 16 14 15 15 13 27 30 29 29 30 29 29 31
29 30 30 31 32 35 33 34 32 31 32 32 34 35 34 33 29 25 20 17 14 12 11 10 5 25 25 26 29 28 27 29
30 31 30 30 31 34 31 32 33 32 31 32 32 33 31 32 28 23 21 19 18 16 15 12 9 7 17 18 14 16 20 24
Wind_Direction
13 10 7 3 3 4 4 9 9 1 341 334 326 322 321 319 315 312 308 307 301 298 297 294 292 289 287 285 284 286 285 284
12 7 3 359 358 360 2 1 359 350 338 330 323 318 317 315 313 311 306 305 301 298 297 296 293 289 286 281 278 283 277 280
7 4 1 3 5 1 2 357 352 349 341 333 327 321 316 314 312 309 307 304 301 298 296 294 293 291 287 283 281 279 277 274
6 7 6 5 4 3 358 353 349 345 340 334 327 322 318 316 315 312 310 308 305 301 298 296 293 290 288 286 282 275 275 273
8 3 3 3 4 1 358 352 349 348 345 340 333 326 321 319 317 314 312 309 305 301 299 296 294 291 288 286 284 279 274 272
2 359 2 5 3 358 356 354 352 348 343 339 334 329 325 322 320 317 315 312 308 305 302 299 296 293 289 285 281 278 275 272
4 6 6 2 0 358 356 353 348 344 341 339 336 332 328 325 321 317 315 313 309 306 303 300 297 293 289 286 283 277 273 271
1 2 2 4 2 359 356 350 344 340 338 340 340 336 332 328 326 322 318 314 310 307 305 302 300 296 290 285 281 275 273 269
2 2 6 5 2 359 353 347 346 348 348 346 343 340 337 335 332 328 323 319 314 310 306 302 299 297 293 287 283 277 272 267
3 3 4 6 7 4 357 347 350 353 352 348 347 346 343 340 336 330 324 320 315 310 307 303 300 296 291 287 281 276 273 269
3 6 6 14 15 13 7 357 354 354 354 354 353 351 347 342 338 333 328 323 320 314 310 305 303 299 293 287 281 276 269 264
344 3 8 10 14 13 9 4 0 1 1 1 357 354 350 346 342 339 334 331 325 320 318 313 308 304 298 289 280 274 269 264
356 6 12 16 14 12 9 8 7 7 7 4 359 357 355 351 348 345 343 338 335 332 326 321 313 306 301 291 283 272 266 262
0 12 18 17 14 12 9 12 11 11 11 8 3 1 359 357 354 351 351 349 345 341 338 331 323 314 302 291 280 269 262 258
8 20 22 21 18 13 13 15 13 15 14 12 10 7 6 5 4 4 2 3 0 355 354 347 334 320 308 289 281 270 260 253
12 21 22 22 21 17 17 17 17 18 18 17 15 14 14 14 15 17 19 16 10 5 4 4 348 326 297 280 271 264 259 254
17 23 22 21 21 20 21 21 21 22 21 19 19 19 20 21 23 28 32 33 29 26 24 20 332 301 275 262 255 259 255 248
18 19 21 22 22 21 24 24 25 25 24 23 23 23 24 25 27 31 34 35 36 38 46 56 69 300 288 277 249 247 247 239
18 18 21 23 24 24 26 26 26 26 25 25 25 25 25 27 30 33 36 39 44 48 56 62 75 101 295 297 285 262 249 238